TimeCDT,TemperatureF,Dew PointF,Humidity,Sea Level PressureIn,VisibilityMPH,Wind Direction,Wind SpeedMPH,Gust SpeedMPH,PrecipitationIn,Events,Conditions,WindDirDegrees,DateUTC
12:53 AM,82.0,68.0,62,29.98,10.0,South,8.1,-,N/A,,Clear,190,2013-09-07 05:53:00
1:53 AM,80.1,68.0,67,29.99,10.0,South,6.9,-,N/A,,Clear,180,2013-09-07 06:53:00
2:53 AM,79.0,68.0,69,29.98,10.0,SSW,4.6,-,N/A,,Clear,200,2013-09-07 07:53:00
3:53 AM,77.0,68.0,74,29.98,10.0,SSE,5.8,-,N/A,,Clear,160,2013-09-07 08:53:00
4:53 AM,75.9,68.0,76,29.99,10.0,SSW,4.6,-,N/A,,Partly Cloudy,200,2013-09-07 09:53:00
5:53 AM,75.9,69.1,79,30.00,10.0,SSE,4.6,-,N/A,,Partly Cloudy,150,2013-09-07 10:53:00
6:53 AM,75.9,70.0,82,30.02,10.0,SSE,5.8,-,N/A,,Clear,160,2013-09-07 11:53:00
7:53 AM,77.0,71.1,82,30.03,10.0,South,5.8,-,N/A,,Clear,180,2013-09-07 12:53:00
8:53 AM,80.1,72.0,76,30.03,10.0,South,6.9,-,N/A,,Clear,190,2013-09-07 13:53:00
9:53 AM,84.9,72.0,65,30.04,10.0,SW,6.9,-,N/A,,Clear,220,2013-09-07 14:53:00
10:53 AM,89.1,70.0,53,30.04,10.0,WSW,4.6,-,N/A,,Clear,240,2013-09-07 15:53:00
11:53 AM,91.9,68.0,45,30.04,10.0,Calm,Calm,-,N/A,,Partly Cloudy,0,2013-09-07 16:53:00
12:53 PM,93.9,66.0,40,30.01,10.0,South,9.2,17.3,N/A,,Partly Cloudy,170,2013-09-07 17:53:00
1:53 PM,96.1,64.0,35,29.99,10.0,SSE,8.1,-,N/A,,Partly Cloudy,150,2013-09-07 18:53:00
2:53 PM,98.1,61.0,29,29.96,10.0,SE,11.5,18.4,N/A,,Partly Cloudy,140,2013-09-07 19:53:00
3:53 PM,99.0,59.0,26,29.92,10.0,SE,6.9,-,N/A,,Clear,130,2013-09-07 20:53:00
4:53 PM,99.0,57.0,25,29.91,10.0,SE,9.2,-,N/A,,Clear,130,2013-09-07 21:53:00
5:53 PM,98.1,55.0,24,29.91,10.0,SSE,10.4,20.7,N/A,,Partly Cloudy,150,2013-09-07 22:53:00
6:53 PM,87.1,66.0,49,29.94,10.0,SSE,13.8,23.0,N/A,,Clear,160,2013-09-07 23:53:00
7:53 PM,84.0,64.9,53,29.95,10.0,South,11.5,-,N/A,,Clear,170,2013-09-08 00:53:00
8:53 PM,81.0,64.0,56,29.96,10.0,South,8.1,-,N/A,,Clear,180,2013-09-08 01:53:00
9:53 PM,79.0,64.9,62,29.97,10.0,South,4.6,-,N/A,,Clear,180,2013-09-08 02:53:00
10:53 PM,77.0,66.0,69,29.98,10.0,South,8.1,-,N/A,,Clear,170,2013-09-08 03:53:00
11:53 PM,75.9,66.9,74,29.99,10.0,SSE,5.8,-,N/A,,Clear,160,2013-09-08 04:53:00